Tracking 22879 objects as of 21-Apr-2021
HD Live streaming from Space Station
objects crossing your sky now

COSMOS 529

Track COSMOS 529 now!
10-day predictions
COSMOS 529 is classified as:


NORAD ID: 6264
Int'l Code: 1972-087B
Perigee: 1,409.1 km
Apogee: 1,474.4 km
Inclination: 74.0 °
Period: 114.5 minutes
Semi major axis: 7812 km
RCS: 0.695 m2 (medium)
Launch date: November 1, 1972
Source: Commonwealth of Independent States (former USSR) (CIS)
Launch site: PLESETSK MISSILE AND SPACE COMPLEX (PKMTR)
aabbcc
Your satellite tracking list
Your tracking list is empty




NASA's NSSDC Master Catalog

Two Line Element Set (TLE):
1 06264U 72087B   21110.84265488 -.00000025  00000-0 -55605-4 0  9996
2 06264  74.0386  12.9906 0041782 128.0162 295.0737 12.57172797224309
Source of the keplerian elements: AFSPC